Content
SEND FEEDBACK

Daily
Averages
Monthly
Summary
China

HEIHE, CHINA


Home > Asia > China
Elevation: 545 feet     Latitude: 50 15N     Longitude: 127 27E

WEATHER
 
SELECT A DAY
Number of Records: 61,594;   Date Range: 6/17/02 - 12/24/14
 
SHARE

PRINT THIS DATA

[ ← Previous Day ]
WEATHER ALMANAC - JANUARY 31, 2013
[ Next Day → ]
[ °C ]   °F
Weather ElementAverageHighLow
Temperature1.5 °F5 °F (4:00 pm)-4 °F (10:30 am)
Dewpoint-3.1 °F1.4 °F (1:30 am)-9.4 °F (10:30 am)
Humidity81.7 %100 % (1:30 am)66 % (3:00 pm)
Barometer30.34 in30.42 in (10:00 am)30.18 in (11:30 pm)
Wind Speed6.7 mph13.4 mph (5:00 am)
Weather ElementAverage
Visibility4.2 mi
Wind DirectionESE (105.2 °)

Weather ElementTotal
Precipitation---
Heating Degree Days64.5 (Base 65)
Averaged from 42 records on January 31, 2013
WEATHER CONDITIONS BREAKOUT
WIND DIRECTION BREAKOUT
WEATHER BY HOUR - JANUARY 31, 2013
[ °C ]   °F
Local TimeTemperatureDewpointHumidityBarometerVisibilityWind DirectionWind SpeedGust SpeedPrecipitationEventsConditions
12:30 AM1.4 °F-0.4 °F92 %30.27 in1.1 miNorth (10°)4.5 mphSnowSnow
1:00 AM1.4 °F-0.4 °F92 %30.27 in1.4 miVariable4.5 mphSnowLight Snow
1:30 AM1.4 °F1.4 °F100 %30.27 in1.4 miNorth (10°)4.5 mphSnowLight Snow
2:00 AM1.4 °F1.4 °F100 %30.27 inNorth (360°)4.5 mphSnowLight Snow
2:30 AM1.4 °F-0.4 °F92 %30.27 inNorth (350°)4.5 mphSnowLight Snow
3:00 AM1.4 °F1.4 °F100 %30.30 in1.1 miNorth (360°)6.7 mphSnowSnow
3:30 AM3.2 °F1.4 °F92 %30.30 inNorth (10°)8.9 mphSnowLight Snow
4:00 AM3.2 °F1.4 °F92 %30.30 inNorth (360°)8.9 mphSnowLight Snow
5:00 AM1.4 °F1.4 °F100 %30.33 in4.3 miNorth (360°)13.4 mphSnowLight Snow
6:00 AM1.4 °F1.4 °F100 %30.33 in4.3 miNorth (360°)13.4 mphSnowLight Snow
6:30 AM1.4 °F1.4 °F100 %30.33 in4.3 miNorth (10°)11.2 mphSnowLight Snow
7:00 AM3.2 °F1.4 °F92 %30.36 in4.3 miNorth (10°)11.2 mphSnowLight Snow
7:30 AM3.2 °F1.4 °F92 %30.36 in6.2 miNorth (10°)11.2 mphSnowLight Snow
8:00 AM3.2 °F-0.4 °F85 %30.36 in6.2 miNorth (360°)8.9 mphOvercast
8:30 AM3.2 °F-2.2 °F78 %30.36 in6.2 miNorth (360°)11.2 mphOvercast
9:00 AM1.4 °F-2.2 °F85 %30.39 in6.2 miNorth (360°)11.2 mphOvercast
9:30 AM1.4 °F-4.0 °F78 %30.39 in6.2 miNorth (10°)11.2 mphOvercast
10:00 AM-2.2 °F-5.8 °F85 %30.42 in6.2 miNorth (10°)11.2 mphOvercast
10:30 AM-4.0 °F-9.4 °F78 %30.42 in6.2 miNNE (30°)4.5 mphMostly Cloudy
11:00 AM-4.0 °F-7.6 °F85 %30.42 inNE (40°)6.7 mphClear
11:30 AM-2.2 °F-5.8 °F85 %30.42 inNNE (30°)4.5 mphClear
12:00 PM-0.4 °F-5.8 °F78 %30.42 inVariable4.5 mphClear
12:30 PM-0.4 °F-5.8 °F78 %30.42 inNNE (30°)4.5 mphClear
1:00 PM1.4 °F-4.0 °F78 %30.42 inNE (40°)4.5 mphClear
1:30 PM1.4 °F-4.0 °F78 %30.42 inNE (40°)4.5 mphClear
2:00 PM3.2 °F-4.0 °F72 %30.39 inNE (50°)4.5 mphClear
2:30 PM1.4 °F-5.8 °F72 %30.39 inNNE (20°)6.7 mphClear
3:00 PM3.2 °F-5.8 °F66 %30.39 inNNE (20°)6.7 mphClear
3:30 PM3.2 °F-4.0 °F72 %30.39 inNNE (20°)6.7 mphClear
4:00 PM5.0 °F-4.0 °F66 %30.36 inNNE (30°)6.7 mphClear
4:30 PM5.0 °F-4.0 °F66 %30.36 inNNE (20°)6.7 mphClear
5:00 PM3.2 °F-4.0 °F72 %30.36 inNorth (10°)6.7 mphClear
5:30 PM3.2 °F-4.0 °F72 %30.36 inEast (100°)4.5 mphClear
6:00 PM3.2 °F-4.0 °F72 %30.36 inESE (110°)2.2 mphClear
6:30 PM1.4 °F-5.8 °F72 %30.36 inESE (120°)2.2 mphClear
7:00 PM1.4 °F-5.8 °F72 %30.33 inESE (120°)4.5 mphClear
7:30 PM3.2 °F-4.0 °F72 %30.33 inVariable4.5 mphClear
8:00 PM1.4 °F-5.8 °F72 %30.30 inESE (110°)4.5 mphClear
9:00 PM-0.4 °F-7.6 °F72 %30.27 inEast (90°)4.5 mphClear
10:00 PM1.4 °F-5.8 °F72 %30.27 inVariable2.2 mphClear
11:00 PM-0.4 °F-5.8 °F78 %30.24 inNNE (20°)4.5 mphClear
11:30 PM-0.4 °F-5.8 °F78 %30.18 in0.9 miENE (60°)6.7 mphSnowSnow
Hourly data recorded from UHBB, located miles away from Heihe, China







STORIES FROM OUR PARTNERS